Location: ??????
(41.3747°N, 22.5491°E)
Time: 05:13:53
(UTC+00:00)

Cosmos 1515 Rocket - Pass Details

Date: 01 December 2020
Orbit: 605 x 631 km, 82.5° (Epoch: 20 January)

Event Time Altitude Azimuth Distance (km) Brightness Sun altitude
Rises 15:35:36 0° 159° (SSE) 2,866 7.0 -6.6°
Reaches altitude 10° 15:38:02 10° 148° (SSE) 1,971 6.1 -7.1°
Maximum altitude 15:41:46 28° 89° (E) 1,168 4.5 -7.7°
Drops below altitude 10° 15:45:32 10° 31° (NNE) 1,998 5.7 -8.4°
Sets 15:48:00 0° 20° (NNE) 2,914 6.6 -8.8°
Enters shadow 15:48:03 - 20° (NNE) 2,930 6.6 -8.8°
